Voltar ao catálogo

STARLINK-3825

AtivoComunicaçõesVLEO
NORAD 52478·PAYLOAD·🇺🇸 United States

Lançado May 6, 2022 de Cape Canaveral Space Force Station

Loading…

Próximas Passagens (próximas 24 horas)

TLE

AtualizadoSource: CelesTrak SupGP

Época: Sep 14, 2026, 21:29 UTC

1 52478C 22049AD  26257.89562500  .00039674  00000+0  11357-2 0  2574
2 52478  53.1590 280.4930 0001090  74.8067 116.0967 15.35362670    18

Acompanhe STARLINK-3825 em tempo real com AllMySat

Download on the App Store